Toronto Pearson, Ontario

3:44 AM EST on December 11, 2019 (GMT -0500)
Toronto-Pearson International

Weather History for CYYZ - May, 2019

Change the Weather History Date:

Thursday, May 9, 2019

  Actual Average Record
Temperature  
Mean Temperature 53 °F -  
Max Temperature 60 °F 68 °F 81 °F (2015)
Min Temperature 46 °F 46 °F 35 °F (2016)
Degree Days  
Heating Degree Days 12    
Growing Degree Days 3 (Base 50)    
Moisture  
Dew Point 42 °F    
Average Humidity 66    
Maximum Humidity 100    
Minimum Humidity 24    
Precipitation  
Precipitation 0.16 in 0.09 in - ()
Sea Level Pressure  
Sea Level Pressure 29.94 in    
Wind  
Wind Speed 15 mph ()    
Max Wind Speed 24 mph    
Max Gust Speed 36 mph    
Visibility 12.1 miles    
Events Rain    
Averages and records for this station are not official NWS values.
T = Trace of Precipitation, MM = Missing Value Source: Averaged Metar Reports

Daily Weather History Graph

Daily Weather History Graph

Search for Another Location

Airport or City:

Astronomy

May. 09, 2019 Rise Set
Actual Time 6:00 AM EDT 8:30 PM EDT
Civil Twilight 5:28 AM EDT 9:02 PM EDT
Nautical Twilight 4:47 AM EDT 9:43 PM EDT
Astronomical Twilight 4:02 AM EDT 10:29 PM EDT
Moon 9:51 AM EDT (5/9) 12:30 AM EDT (5/9)
Length of Visible Light 15h 34m
Length of Day
14h 29m
Waxing Crescent, 24% of the Moon is Illuminated
May 9
Waxing Crescent
May 11
First Quarter
May 18
Full
May 26
Last Quarter
Jun 3
New

Hourly Weather History & Observations

Time (EDT) Temp. Windchill Dew Point Humidity Pressure Visibility Wind Dir Wind Speed Gust Speed Precip Events Conditions
12:00 AM 50.0 °F - 24.8 °F 37% 30.26 in 15.0 mi ESE 16.1 mph 27.6 mph N/A   Overcast
1:00 AM 50.0 °F - 23.0 °F 35% 30.26 in 15.0 mi ESE 18.4 mph 28.8 mph N/A   Overcast
2:00 AM 49 °F - 24 °F 24% 30.23 in 15 mi ESE 20.7 mph - -   Overcast
2:00 AM 50.0 °F - 23.0 °F 35% 30.23 in 15.0 mi ESE 21.9 mph 31.1 mph N/A   Overcast
3:00 AM 50.0 °F - 23.0 °F 35% 30.19 in 15.0 mi ESE 23.0 mph 33.4 mph N/A   Overcast
4:00 AM 48.2 °F - 24.8 °F 40% 30.16 in 15.0 mi ESE 24.2 mph 35.7 mph N/A   Overcast
5:00 AM 48 °F - 26 °F 29% 30.14 in 15 mi East 20.7 mph - -  
5:00 AM 48.2 °F - 24.8 °F 40% 30.14 in 15.0 mi ESE 20.7 mph 33.4 mph N/A   Mostly Cloudy
6:00 AM 48.2 °F - 26.6 °F 43% 30.12 in 15.0 mi ESE 18.4 mph 27.6 mph N/A   Mostly Cloudy
7:00 AM 46.4 °F 38.7 °F 30.2 °F 53% 30.09 in 15.0 mi East 20.7 mph 33.4 mph N/A   Mostly Cloudy
8:00 AM 47 °F - 31 °F 41% 30.06 in 15 mi ESE 20.7 mph - -   Scattered Clouds
8:00 AM 48.2 °F - 30.2 °F 50% 30.06 in 15.0 mi East 21.9 mph 32.2 mph N/A   Mostly Cloudy
9:00 AM 48.2 °F - 32.0 °F 54% 30.04 in 15.0 mi ESE 20.7 mph 35.7 mph N/A   Mostly Cloudy
10:00 AM 50.0 °F - 33.8 °F 54% 30.01 in 15.0 mi East 18.4 mph 28.8 mph N/A   Mostly Cloudy
11:00 AM 49 °F - 35 °F 46% 29.98 in 15 mi East 18.4 mph - -   Overcast
11:00 AM 50.0 °F - 33.8 °F 54% 29.98 in 15.0 mi East 18.4 mph 25.3 mph N/A   Overcast
12:00 PM 51.8 °F - 37.4 °F 58% 29.96 in 15.0 mi ESE 19.6 mph 26.5 mph N/A   Mostly Cloudy
1:00 PM 55.4 °F - 41.0 °F 58% 29.92 in 15.0 mi ESE 21.9 mph - N/A   Mostly Cloudy
2:00 PM 58 °F - 43 °F 46% 29.89 in 15 mi ESE 16.1 mph - -   Scattered Clouds
2:00 PM 57.2 °F - 42.8 °F 59% 29.89 in 15.0 mi East 18.4 mph - N/A   Mostly Cloudy
2:20 PM 57.2 °F - 42.8 °F 59% 29.88 in 15.0 mi ESE 19.6 mph 27.6 mph N/A Rain Light Rain Showers
3:00 PM 57.2 °F - 44.6 °F 63% 29.86 in 15.0 mi ESE 16.1 mph 24.2 mph N/A Rain Light Rain Showers
3:14 PM 55.4 °F - 44.6 °F 67% 29.85 in 15.0 mi ESE 18.4 mph 24.2 mph N/A   Overcast
4:00 PM 57.2 °F - 46.4 °F 67% 29.82 in 15.0 mi ESE 12.7 mph - N/A   Overcast
4:12 PM 57.2 °F - 46.4 °F 67% 29.83 in 12.0 mi SE 10.4 mph 18.4 mph N/A Rain Light Rain Showers
4:39 PM 57.2 °F - 48.2 °F 72% 29.83 in 5.0 mi Variable 11.5 mph - N/A Rain Rain Showers
4:42 PM 55.4 °F - 48.2 °F 77% 29.83 in 4.0 mi Variable 10.4 mph - N/A Rain Heavy Rain Showers
4:46 PM 55.4 °F - 48.2 °F 77% 29.83 in 8.0 mi Variable 2.3 mph - N/A Rain Light Rain Showers
5:00 PM 56 °F - 49 °F 71% 29.83 in 10 mi SSE 4.6 mph - -   Overcast
5:00 PM 55.4 °F - 50.0 °F 82% 29.83 in 10.0 mi SE 4.6 mph - N/A Rain Light Rain Showers
5:19 PM 55.4 °F - 51.8 °F 88% 29.82 in 5.0 mi SE 13.8 mph - N/A Rain Rain Showers
5:23 PM 55.4 °F - 51.8 °F 88% 29.81 in 3.0 mi ESE 13.8 mph - N/A Rain Heavy Rain Showers
5:29 PM 55.4 °F - 51.8 °F 88% 29.81 in 6.0 mi Variable 9.2 mph - N/A Rain Rain Showers
5:33 PM 55.4 °F - 50.0 °F 82% 29.81 in 10.0 mi SE 10.4 mph - N/A Rain Light Rain Showers
6:00 PM 55.4 °F - 51.8 °F 88% 29.83 in 10.0 mi SSW 12.7 mph - N/A Rain Light Rain Showers
6:16 PM 55.4 °F - 53.6 °F 94% 29.82 in 12.0 mi South 4.6 mph 19.6 mph N/A   Overcast
7:00 PM 57.2 °F - 53.6 °F 88% 29.81 in 12.0 mi South 5.8 mph 17.3 mph N/A   Mostly Cloudy
8:00 PM 55 °F - 53 °F 92% 29.81 in 10 mi SE 12.7 mph - -   Partly Cloudy
8:00 PM 55.4 °F - 53.6 °F 94% 29.80 in 10.0 mi SE 12.7 mph - N/A   Mostly Cloudy
9:19 PM 55.4 °F - 53.6 °F 94% 29.81 in 8.0 mi SE 16.1 mph - N/A   Overcast
9:48 PM 55.4 °F - 55.4 °F 100% 29.82 in 9.0 mi Variable 3.5 mph - N/A   Overcast
10:00 PM 57.2 °F - 55.4 °F 94% 29.82 in 9.0 mi South 9.2 mph - N/A   Overcast
11:00 PM 60 °F - 58 °F 90% 29.81 in 10 mi SSE 11.5 mph - -   Overcast
11:00 PM 59.0 °F - 57.2 °F 94% 29.81 in 10.0 mi SSE 11.5 mph - N/A   Overcast
11:12 PM 59.0 °F - 57.2 °F 94% 29.81 in 10.0 mi SSE 8.1 mph - N/A Rain Light Rain